Track STARLINK-2526 now! 10-day predictions STARLINK-2526 is classified as:
1 48378U 21038AB 22186.47633723 .00000863 00000-0 76813-4 0 9994 2 48378 53.0542 261.5515 0001374 74.3143 285.7997 15.06399370 64711